Location: Firdgum
(53.2488°N, 5.5615°E)
Time: 13:30:06
(UTC+00:00)

Cosmos 1461 - Pass Details

Date: 08 December 2019
Orbit: 518 x 649 km, 65.0° (Epoch: 22 January)

Event Time Altitude Azimuth Distance (km) Brightness Sun altitude
Exits shadow 04:57:37 41° 198° (SSW) 850 3.6 -22.7°
Drops below altitude 10° 05:00:56 10° 161° (SSE) 1,926 5.9 -22.2°
Sets 05:03:16 0° 155° (SSE) 2,847 6.9 -21.8°
